Weather in Malinki

Russia / Lipetsk Oblast     53°19′30″N   38°59′43″E
temp.,
°C
wind,
m/s
gust,
m/s
humid.,
%
clouds,
%
prec.,
mm/h
press.,
hPa
HPBL,
m
8 may, sat
sat800:00+8sse476744 0.0 1015102
03:00+7sse51275100 0.0 1014267
06:00+8sse61580100 0.0 1013478
09:00+9sse71483100 0.8 1011619
12:00+12sse81575100 0.3 10091045
15:00+12sse81577100 1.0 10061041
18:00+11ssw91693100 5.4 10041116
21:00+11ssw61194100 6.1 1004640
9 may, sun
sun900:00+9ssw4997100 0.1 1004384
03:00+7sw71193100 0.2 1006647
06:00+4wnw71396100 0.1 1008811
09:00+4nw7129099 0.3 1012904
12:00+8nw81069100 0.1 10141427
15:00+7nw81173100 0.2 10171246
18:00+7nnw61070100 0.0 10201340
21:00+5nw387632 0.0 1022166
10 may, mon
mon1000:00+4nw411835 0.0 1023213
03:00+3nnw411810 0.0 1025226
06:00+4n512790 0.0 1027273
09:00+9n711600 0.0 10271122
12:00+12nne810460 0.0 10271574
15:00+13nne9124717 0.0 10271617
18:00+12nne712571 0.0 10261353
21:00+8nne514711 0.0 1028468
11 may, tue
tue1100:00+7nne615665 0.0 1027436
03:00+6ne7166787 0.0 1027424
06:00+6nne7167293 0.0 1027434
09:00+10ne91566100 0.0 1027643
12:00+14ene81064100 0.0 1026917
15:00+13ene6117277 0.0 1026656
18:00+14ese2484100 0.0 1026127
21:00+12ne6148298 0.0 1024401
12 may, wed
wed1200:00+12e71388100 0.3 1024558
03:00+11ese2499100 1.4 1023222
06:00+11se2598100 1.6 1023421
09:00+10ssw3596100 6.4 1024277
12:00+12ene2384100 0.8 1023408
15:00+14e2380100 0.8 1022590
18:00+13ne1192100 0.0 102157
21:00+13ene239796 0.7 102065